Regional Weather Roundup
Issued by NWS

Home | Current Version | Previous Version | Text Only | Print | Product List | Glossary Off
Versions: 1 2 3 4 5 6 7 8 9 10 11 12 13 14 15 16 17 18 19 20 21 22 23 24 25 26 27 28 29 30 31 32 33 34 35 36 37 38 39 40 41 42 43 44 45 46 47 48 49 50

776
ASUS43 KOAX 211710
RWRNE

WEATHER ROUNDUP FOR NEBRASKA
NATIONAL WEATHER SERVICE OMAHA NE
1100 AM CST TUE FEB 21 2017

NOTES: SATELLITE DATA IS BEING USED TO AUGMENT CLOUD COVER ABOVE
       12000 FEET.
       "FAIR" INDICATES FEW OR NO CLOUDS BELOW 12,000 FEET WITH NO
       SIGNIFICANT WEATHER AND/OR OBSTRUCTIONS TO VISIBILITY.

  * THESE STATIONS DO NOT REPORT WEATHER SUCH AS RAIN...SNOW OR FOG.

NEZ001>004-019>022-054>056-211800-
NEBRASKA PANHANDLE

CITY           SKY/WX    TMP DP  RH WIND       PRES   REMARKS
SCOTTSBLUFF    SUNNY     66  28  24 W35G41    29.90F
ALLIANCE       SUNNY     63  30  28 W18G28    29.90F
CHADRON        SUNNY     64  33  31 W28G38    29.85F
KIMBALL        SUNNY     65  30  27 W26G36    30.01R
SIDNEY         SUNNY     65  27  23 W21G29    29.99R
$$

NEZ057>060-069>072-079>082-211800-
SOUTHWEST NEBRASKA

CITY           SKY/WX    TMP DP  RH WIND       PRES   REMARKS
NORTH PLATTE   SUNNY     60  26  27 W8        29.95F
IMPERIAL       SUNNY     66  25  21 W14       29.98F
LEXINGTON      SUNNY     62  20  19 SW22G28   29.96F
MCCOOK         SUNNY     60  25  26 W6        29.99S
OGALLALA       SUNNY     61  27  28 SW9       29.96S
$$

NEZ005>010-023>029-035>040-094-211800-
NORTH CENTRAL NEBRASKA

CITY           SKY/WX    TMP DP  RH WIND       PRES   REMARKS
VALENTINE      SUNNY     66  29  24 SW24G32   29.81F
AINSWORTH      SUNNY     65  32  29 SW18      29.84S
BROKEN BOW     SUNNY     63  26  24 SW14      29.92F
O`NEILL        SUNNY     65  25  22 SW13      29.84F
ORD            SUNNY     63  21  20 SW24      29.89F
THEDFORD       SUNNY     67  31  26 W16G23    29.90F
$$

NEZ041-046>049-061>064-073>077-083>087-211800-
SOUTH CENTRAL NEBRASKA

CITY           SKY/WX    TMP DP  RH WIND       PRES   REMARKS
GRAND ISLAND   SUNNY     61  33  35 SW24      29.96F
AURORA         SUNNY     61  36  39 SW23      29.97S
HASTINGS       SUNNY     61  33  35 SW14G22   29.99S
HEBRON         SUNNY     61  36  38 SW12      30.01F
HOLDREGE       SUNNY     56  24  28 SW17G25   29.98F
KEARNEY *      SUNNY     61  25  25 SW20G28   29.97F
YORK           SUNNY     59  37  44 SW18      29.98S
$$

NEZ011>018-030>034-042>045-211800-
NORTHEAST NEBRASKA

CITY           SKY/WX    TMP DP  RH WIND       PRES   REMARKS
NORFOLK        SUNNY     62  32  32 SW21G31   29.89F
ALBION         SUNNY     62  24  23 SW18G24   29.91F
BLAIR          SUNNY     55  41  59 S12       29.97F
FREMONT        SUNNY     60  39  46 S13       29.96F
TEKAMAH        SUNNY     59  42  53 S17       29.95F
WAYNE          SUNNY     60  38  45 SW18G24   29.90S
$$

NEZ050>053-065>068-078-088>093-211800-
SOUTHEAST NEBRASKA

CITY           SKY/WX    TMP DP  RH WIND       PRES   REMARKS
LINCOLN        SUNNY     63  39  41 SW13      29.98F
OMAHA EPPLEY   MOSUNNY   56  43  61 S6        29.98F
BEATRICE       SUNNY     61  38  43 SW7       30.01F
FALLS CITY     SUNNY     55  44  66 CALM      30.02F
NEBRASKA CITY  SUNNY     56  38  51 SW10      30.01S
PLATTSMOUTH    SUNNY     56  43  59 S14       29.99F
$$

NEZ044-045-051>053-067-211800-
OMAHA AREA

CITY           SKY/WX    TMP DP  RH WIND       PRES   REMARKS
OMAHA EPPLEY   MOSUNNY   56  43  61 S6        29.98F
BLAIR          SUNNY     55  41  59 S12       29.97F
FREMONT        SUNNY     60  39  46 S13       29.96F
MILLARD        SUNNY     58  42  54 SW8       29.98F
OFFUTT AFB     SUNNY     55  45  67 SE5       29.99F
PLATTSMOUTH    SUNNY     56  43  59 S14       29.99F
WAHOO          FAIR      61  37  40 SW16G23   29.97S
$$




USA.gov is the U.S. government's official web portal to all federal, state and local government web resources and services.